• In Hungary
  • List of Countries
  • For 7 days
  • Water Temperature
  • Satellite Maps
  • Weather Map
  • News
  • Weather Widgets
  • user-avatar
    Login

    Hourly Weather San Lorenzo

    Today, 25 February, Sunday

    Time Temperature Precipitation Wind Pressure Humidity
    00:00 +25°C° 0 mm 1 mps 746 mmHg 59%
    01:00 +25°C° 0 mm 1 mps 746 mmHg 61%
    02:00 +24°C° 0 mm 1 mps 746 mmHg 64%
    03:00 +23°C° 0 mm 1 mps 746 mmHg 66%
    04:00 +23°C° 0 mm 1 mps 746 mmHg 67%
    05:00 +23°C° 0 mm 1 mps 746 mmHg 69%
    06:00 +25°C° 0 mm 1 mps 747 mmHg 64%
    07:00 +27°C° 0 mm 1 mps 747 mmHg 59%
    08:00 +30°C° 0 mm 1 mps 747 mmHg 50%
    09:00 +33°C° 0 mm 1 mps 747 mmHg 42%
    10:00 +36°C° 0 mm 1 mps 747 mmHg 35%
    11:00 +40°C° 0 mm 1 mps 747 mmHg 28%
    12:00 +40°C° 0 mm 1 mps 746 mmHg 27%
    13:00 +37°C° 0 mm 0 mps 746 mmHg 26%
    14:00 +37°C° 0 mm 0 mps 745 mmHg 25%
    15:00 +39°C° 0 mm 1 mps 744 mmHg 27%
    16:00 +37°C° 0 mm 1 mps 744 mmHg 28%
    17:00 +36°C° 0 mm 1 mps 744 mmHg 30%
    18:00 +35°C° 0 mm 2 mps 744 mmHg 35%
    19:00 +32°C° 0 mm 2 mps 744 mmHg 40%
    20:00 +29°C° 0 mm 2 mps 744 mmHg 45%
    21:00 +29°C° 0 mm 2 mps 745 mmHg 49%
    22:00 +28°C° 0 mm 2 mps 745 mmHg 53%
    23:00 +28°C° 0 mm 2 mps 746 mmHg 57%

    Tomorrow, 26 February, Monday

    Time Temperature Precipitation Wind Pressure Humidity
    00:00 +27°C° 0 mm 2 mps 746 mmHg 61%
    01:00 +26°C° 0 mm 1 mps 745 mmHg 65%
    02:00 +25°C° 0 mm 1 mps 745 mmHg 69%
    03:00 +25°C° 0 mm 1 mps 745 mmHg 72%
    04:00 +24°C° 0 mm 1 mps 745 mmHg 75%
    05:00 +24°C° 0 mm 1 mps 745 mmHg 78%
    06:00 +26°C° 0 mm 1 mps 746 mmHg 72%
    07:00 +28°C° 0 mm 1 mps 746 mmHg 65%
    08:00 +30°C° 0 mm 1 mps 747 mmHg 59%
    09:00 +32°C° 0 mm 1 mps 746 mmHg 51%
    10:00 +36°C° 0 mm 2 mps 746 mmHg 43%
    11:00 +38°C° 0 mm 2 mps 746 mmHg 35%
    12:00 +38°C° 0 mm 2 mps 745 mmHg 33%
    13:00 +39°C° 0 mm 1 mps 744 mmHg 31%
    14:00 +39°C° 0 mm 1 mps 744 mmHg 29%
    15:00 +37°C° 0 mm 1 mps 743 mmHg 32%
    16:00 +36°C° 0 mm 1 mps 743 mmHg 34%
    17:00 +35°C° 0 mm 1 mps 743 mmHg 37%
    18:00 +35°C° 0 mm 2 mps 743 mmHg 40%
    19:00 +32°C° 0 mm 2 mps 743 mmHg 42%
    20:00 +31°C° 0 mm 2 mps 744 mmHg 45%
    21:00 +31°C° 0 mm 2 mps 744 mmHg 48%
    22:00 +30°C° 0 mm 2 mps 744 mmHg 51%
    23:00 +29°C° 0 mm 2 mps 745 mmHg 53%

    Day after tomorrow, 27 February, Tuesday

    Time Temperature Precipitation Wind Pressure Humidity
    00:00 +28°C° 0 mm 2 mps 744 mmHg 58%
    01:00 +27°C° 0 mm 1 mps 744 mmHg 62%
    02:00 +26°C° 0 mm 1 mps 744 mmHg 66%
    03:00 +26°C° 0 mm 1 mps 744 mmHg 70%
    04:00 +25°C° 0 mm 1 mps 744 mmHg 74%
    05:00 +25°C° 0 mm 1 mps 744 mmHg 78%
    06:00 +26°C° 0.1 mm 1 mps 744 mmHg 73%
    07:00 +28°C° 0.1 mm 1 mps 745 mmHg 67%
    08:00 +30°C° 0.1 mm 1 mps 745 mmHg 62%
    09:00 +32°C° 0 mm 1 mps 745 mmHg 54%
    10:00 +36°C° 0 mm 2 mps 745 mmHg 45%
    11:00 +38°C° 0 mm 2 mps 745 mmHg 36%
    12:00 +39°C° 0 mm 2 mps 744 mmHg 33%
    13:00 +40°C° 0 mm 2 mps 743 mmHg 31%
    14:00 +40°C° 0 mm 2 mps 742 mmHg 29%
    15:00 +39°C° 0 mm 2 mps 742 mmHg 33%
    16:00 +37°C° 0 mm 2 mps 741 mmHg 37%
    17:00 +35°C° 0 mm 2 mps 741 mmHg 41%
    18:00 +34°C° 0.1 mm 2 mps 742 mmHg 45%
    19:00 +32°C° 0.1 mm 1 mps 742 mmHg 50%
    20:00 +31°C° 0.1 mm 1 mps 742 mmHg 54%
    21:00 +30°C° 0.1 mm 1 mps 743 mmHg 56%
    22:00 +30°C° 0.1 mm 1 mps 743 mmHg 59%
    23:00 +29°C° 0.1 mm 1 mps 743 mmHg 62%

    28 February, Wednesday

    Time Temperature Precipitation Wind Pressure Humidity
    00:00 +28°C° 0 mm 1 mps 743 mmHg 66%
    01:00 +27°C° 0 mm 2 mps 743 mmHg 71%
    02:00 +26°C° 0 mm 2 mps 742 mmHg 75%
    03:00 +26°C° 0 mm 2 mps 742 mmHg 78%
    04:00 +26°C° 0 mm 1 mps 742 mmHg 81%
    05:00 +25°C° 0 mm 1 mps 743 mmHg 84%
    06:00 +26°C° 0 mm 2 mps 743 mmHg 80%
    07:00 +27°C° 0 mm 2 mps 744 mmHg 77%
    08:00 +28°C° 0 mm 2 mps 744 mmHg 73%
    09:00 +31°C° 0 mm 2 mps 744 mmHg 64%
    10:00 +33°C° 0 mm 1 mps 744 mmHg 55%
    11:00 +35°C° 0 mm 1 mps 744 mmHg 46%
    12:00 +35°C° 0 mm 1 mps 744 mmHg 47%
    13:00 +35°C° 0 mm 1 mps 743 mmHg 47%
    14:00 +35°C° 0 mm 1 mps 742 mmHg 47%
    15:00 +33°C° 1.1 mm 1 mps 742 mmHg 58%
    16:00 +31°C° 1.1 mm 1 mps 742 mmHg 68%
    17:00 +29°C° 1.1 mm 2 mps 742 mmHg 78%
    18:00 +28°C° 0.9 mm 1 mps 742 mmHg 82%
    19:00 +27°C° 0.9 mm 1 mps 743 mmHg 86%
    20:00 +26°C° 0.9 mm 1 mps 743 mmHg 90%
    21:00 +26°C° 0 mm 1 mps 743 mmHg 90%
    22:00 +26°C° 0 mm 1 mps 744 mmHg 91%
    23:00 +23°C° 0 mm 0 mps 744 mmHg 92%

    1 March, Thursday

    Time Temperature Precipitation Wind Pressure Humidity
    00:00 +23°C° 0 mm 0 mps 744 mmHg 92%
    01:00 +23°C° 0 mm 0 mps 744 mmHg 93%
    02:00 +25°C° 0 mm 1 mps 743 mmHg 93%
    03:00 +25°C° 0 mm 1 mps 744 mmHg 93%
    04:00 +25°C° 0 mm 1 mps 744 mmHg 94%
    05:00 +25°C° 0 mm 1 mps 744 mmHg 94%
    06:00 +26°C° 0 mm 1 mps 744 mmHg 91%
    07:00 +26°C° 0 mm 1 mps 745 mmHg 89%
    08:00 +27°C° 0 mm 1 mps 746 mmHg 86%
    09:00 +29°C° 0 mm 2 mps 746 mmHg 77%
    10:00 +31°C° 0 mm 2 mps 746 mmHg 67%
    11:00 +34°C° 0 mm 2 mps 746 mmHg 58%
    12:00 +34°C° 0.6 mm 2 mps 745 mmHg 59%
    13:00 +34°C° 0.6 mm 2 mps 745 mmHg 61%
    14:00 +34°C° 0.6 mm 3 mps 744 mmHg 63%
    15:00 +32°C° 1.2 mm 2 mps 744 mmHg 68%
    16:00 +31°C° 1.2 mm 1 mps 744 mmHg 73%
    17:00 +30°C° 1.2 mm 1 mps 744 mmHg 78%
    18:00 +29°C° 0 mm 1 mps 744 mmHg 80%
    19:00 +28°C° 0 mm 1 mps 745 mmHg 82%
    20:00 +27°C° 0 mm 1 mps 745 mmHg 85%
    21:00 +27°C° 0 mm 1 mps 745 mmHg 86%
    22:00 +27°C° 0 mm 1 mps 746 mmHg 88%
    23:00 +26°C° 0 mm 1 mps 746 mmHg 89%

    2 March, Friday

    Time Temperature Precipitation Wind Pressure Humidity
    00:00 +26°C° 0.2 mm 1 mps 746 mmHg 90%
    01:00 +26°C° 0.2 mm 1 mps 745 mmHg 91%
    02:00 +26°C° 0.2 mm 1 mps 745 mmHg 92%
    03:00 +25°C° 0 mm 1 mps 745 mmHg 93%
    04:00 +25°C° 0 mm 1 mps 745 mmHg 93%
    05:00 +25°C° 0 mm 1 mps 745 mmHg 93%
    06:00 +26°C° 0.5 mm 1 mps 746 mmHg 88%
    07:00 +28°C° 0.5 mm 1 mps 746 mmHg 83%
    08:00 +29°C° 0.5 mm 1 mps 747 mmHg 77%
    09:00 +31°C° 0.5 mm 1 mps 746 mmHg 68%
    10:00 +33°C° 0.5 mm 1 mps 746 mmHg 59%
    11:00 +35°C° 0.5 mm 1 mps 746 mmHg 49%
    12:00 +35°C° 0.2 mm 1 mps 745 mmHg 48%
    13:00 +35°C° 0.2 mm 1 mps 745 mmHg 47%
    14:00 +35°C° 0.2 mm 1 mps 744 mmHg 46%
    15:00 +35°C° 0 mm 1 mps 744 mmHg 49%
    16:00 +34°C° 0 mm 1 mps 743 mmHg 52%
    17:00 +34°C° 0 mm 1 mps 743 mmHg 54%
    18:00 +32°C° 0.5 mm 1 mps 743 mmHg 60%
    19:00 +30°C° 0.5 mm 1 mps 744 mmHg 67%
    20:00 +29°C° 0.5 mm 1 mps 744 mmHg 73%
    21:00 +28°C° 0.6 mm 1 mps 744 mmHg 78%
    22:00 +27°C° 0.6 mm 1 mps 744 mmHg 84%
    23:00 +26°C° 0.6 mm 1 mps 744 mmHg 89%
    Show more